Index of /20260501/WXO-DD/model_gdps/15km/00/014
Name Last modified Size Description
Parent Directory -
20260501T00Z_MSC_GDPS_AirTemp_AGL-120m_LatLon0.15_PT014H.grib2 2026-05-01 03:50 792K
20260501T00Z_MSC_GDPS_AirTemp_AGL-2m_LatLon0.15_PT014H.grib2 2026-05-01 03:50 1.0M
20260501T00Z_MSC_GDPS_AirTemp_AGL-40m_LatLon0.15_PT014H.grib2 2026-05-01 03:50 813K
20260501T00Z_MSC_GDPS_AirTemp_AGL-80m_LatLon0.15_PT014H.grib2 2026-05-01 03:50 801K
20260501T00Z_MSC_GDPS_Albedo_Sfc_LatLon0.15_PT014H.grib2 2026-05-01 03:50 242K
20260501T00Z_MSC_GDPS_ConvectivePrecip-Accum_Sfc_LatLon0.15_PT014H.grib2 2026-05-01 03:50 1.9M
20260501T00Z_MSC_GDPS_DewPointDepression_AGL-2m_LatLon0.15_PT014H.grib2 2026-05-01 03:50 766K
20260501T00Z_MSC_GDPS_DewPoint_AGL-2m_LatLon0.15_PT014H.grib2 2026-05-01 03:50 610K
20260501T00Z_MSC_GDPS_DownwardLongwaveRadiationFlux-Accum_Sfc_LatLon0.15_PT014H.grib2 2026-05-01 03:50 809K
20260501T00Z_MSC_GDPS_DownwardShortwaveRadiationFlux-Accum_Sfc_LatLon0.15_PT014H.grib2 2026-05-01 03:50 967K
20260501T00Z_MSC_GDPS_FreezingRain-Accum1h_Sfc_LatLon0.15_PT014H.grib2 2026-05-01 03:50 42K
20260501T00Z_MSC_GDPS_FreezingRain-Accum_Sfc_LatLon0.15_PT014H.grib2 2026-05-01 03:50 139K
20260501T00Z_MSC_GDPS_IcePellets-Accum1h_Sfc_LatLon0.15_PT014H.grib2 2026-05-01 03:50 14K
20260501T00Z_MSC_GDPS_IcePellets-Accum_Sfc_LatLon0.15_PT014H.grib2 2026-05-01 03:50 34K
20260501T00Z_MSC_GDPS_LatentHeatNetFlux_Sfc_LatLon0.15_PT014H.grib2 2026-05-01 03:50 716K
20260501T00Z_MSC_GDPS_NetLongwaveRadiationFlux-Accum_Sfc_LatLon0.15_PT014H.grib2 2026-05-01 03:50 1.0M
20260501T00Z_MSC_GDPS_NetShortwaveRadiationFlux-Accum_Sfc_LatLon0.15_PT014H.grib2 2026-05-01 03:50 932K
20260501T00Z_MSC_GDPS_O3MixingRatio_Sfc_LatLon0.15_PT014H.grib2 2026-05-01 04:49 2.4M
20260501T00Z_MSC_GDPS_O3_EAtm_LatLon0.15_PT014H.grib2 2026-05-01 04:49 2.5M
20260501T00Z_MSC_GDPS_PlanetaryBoundaryLayerHeight_Sfc_LatLon0.15_PT014H.grib2 2026-05-01 03:50 2.5M
20260501T00Z_MSC_GDPS_Precip-Accum1h_Sfc_LatLon0.15_PT014H.grib2 2026-05-01 03:50 3.2M
20260501T00Z_MSC_GDPS_Precip-Accum_Sfc_LatLon0.15_PT014H.grib2 2026-05-01 03:50 4.2M
20260501T00Z_MSC_GDPS_PrecipRate_Sfc_LatLon0.15_PT014H.grib2 2026-05-01 03:50 3.0M
20260501T00Z_MSC_GDPS_Pressure_MSL_LatLon0.15_PT014H.grib2 2026-05-01 03:50 826K
20260501T00Z_MSC_GDPS_Pressure_Sfc_LatLon0.15_PT014H.grib2 2026-05-01 03:50 1.1M
20260501T00Z_MSC_GDPS_RadiativeTemp_Sfc_LatLon0.15_PT014H.grib2 2026-05-01 03:50 491K
20260501T00Z_MSC_GDPS_Rain-Accum1h_Sfc_LatLon0.15_PT014H.grib2 2026-05-01 03:50 1.7M
20260501T00Z_MSC_GDPS_Rain-Accum_Sfc_LatLon0.15_PT014H.grib2 2026-05-01 03:50 3.1M
20260501T00Z_MSC_GDPS_RelativeHumidity_AGL-2m_LatLon0.15_PT014H.grib2 2026-05-01 03:50 1.1M
20260501T00Z_MSC_GDPS_Runoff-Accum_Sfc_LatLon0.15_PT014H.grib2 2026-05-01 03:50 91K
20260501T00Z_MSC_GDPS_SensibleHeatNetFlux_Sfc_LatLon0.15_PT014H.grib2 2026-05-01 03:50 650K
20260501T00Z_MSC_GDPS_Snow-Accum1h_Sfc_LatLon0.15_PT014H.grib2 2026-05-01 03:50 1.0M
20260501T00Z_MSC_GDPS_Snow-Accum_Sfc_LatLon0.15_PT014H.grib2 2026-05-01 03:50 1.6M
20260501T00Z_MSC_GDPS_SnowDepth_Sfc_LatLon0.15_PT014H.grib2 2026-05-01 03:50 1.7M
20260501T00Z_MSC_GDPS_SoilTemp_DBS-0to10cm_LatLon0.15_PT014H.grib2 2026-05-01 03:50 501K
20260501T00Z_MSC_GDPS_SoilTemp_Sfc_LatLon0.15_PT014H.grib2 2026-05-01 03:50 586K
20260501T00Z_MSC_GDPS_SoilVolumetricWaterContent_DBS-0to10cm_LatLon0.15_PT014H.grib2 2026-05-01 03:50 585K
20260501T00Z_MSC_GDPS_SoilVolumetricWaterContent_DBS-0to1cm_LatLon0.15_PT014H.grib2 2026-05-01 03:50 645K
20260501T00Z_MSC_GDPS_SpecificHumidity_AGL-120m_LatLon0.15_PT014H.grib2 2026-05-01 03:50 1.1M
20260501T00Z_MSC_GDPS_SpecificHumidity_AGL-2m_LatLon0.15_PT014H.grib2 2026-05-01 03:50 1.2M
20260501T00Z_MSC_GDPS_SpecificHumidity_AGL-40m_LatLon0.15_PT014H.grib2 2026-05-01 03:50 1.1M
20260501T00Z_MSC_GDPS_SpecificHumidity_AGL-80m_LatLon0.15_PT014H.grib2 2026-05-01 03:50 1.1M
20260501T00Z_MSC_GDPS_SpecificHumidity_Sfc_LatLon0.15_PT014H.grib2 2026-05-01 03:50 670K
20260501T00Z_MSC_GDPS_TotalCloudCover_Sfc_LatLon0.15_PT014H.grib2 2026-05-01 03:50 827K
20260501T00Z_MSC_GDPS_UVIndex-ClearSky_Sfc_LatLon0.15_PT014H.grib2 2026-05-01 04:49 1.0M
20260501T00Z_MSC_GDPS_UVIndex_Sfc_LatLon0.15_PT014H.grib2 2026-05-01 04:49 1.5M
20260501T00Z_MSC_GDPS_UpwardLongwaveRadiationFlux_NTAtm_LatLon0.15_PT014H.grib2 2026-05-01 03:50 842K
20260501T00Z_MSC_GDPS_WindDir_AGL-10m_LatLon0.15_PT014H.grib2 2026-05-01 03:50 1.3M
20260501T00Z_MSC_GDPS_WindDir_AGL-120m_LatLon0.15_PT014H.grib2 2026-05-01 03:50 1.3M
20260501T00Z_MSC_GDPS_WindDir_AGL-40m_LatLon0.15_PT014H.grib2 2026-05-01 03:50 1.4M
20260501T00Z_MSC_GDPS_WindDir_AGL-80m_LatLon0.15_PT014H.grib2 2026-05-01 03:50 1.4M
20260501T00Z_MSC_GDPS_WindDir_IsbL-0700_LatLon0.15_PT014H.grib2 2026-05-01 03:50 1.6M
20260501T00Z_MSC_GDPS_WindGust-Max_AGL-10m_LatLon0.15_PT014H.grib2 2026-05-01 03:50 2.2M
20260501T00Z_MSC_GDPS_WindGust-Min_AGL-10m_LatLon0.15_PT014H.grib2 2026-05-01 03:50 2.2M
20260501T00Z_MSC_GDPS_WindGust_AGL-10m_LatLon0.15_PT014H.grib2 2026-05-01 03:50 2.1M
20260501T00Z_MSC_GDPS_WindSpeed_AGL-10m_LatLon0.15_PT014H.grib2 2026-05-01 03:50 1.1M
20260501T00Z_MSC_GDPS_WindSpeed_AGL-120m_LatLon0.15_PT014H.grib2 2026-05-01 03:50 1.2M
20260501T00Z_MSC_GDPS_WindSpeed_AGL-40m_LatLon0.15_PT014H.grib2 2026-05-01 03:50 1.2M
20260501T00Z_MSC_GDPS_WindSpeed_AGL-80m_LatLon0.15_PT014H.grib2 2026-05-01 03:50 1.2M
20260501T00Z_MSC_GDPS_WindSpeed_IsbL-0700_LatLon0.15_PT014H.grib2 2026-05-01 03:50 1.5M
20260501T00Z_MSC_GDPS_WindU_AGL-10m_LatLon0.15_PT014H.grib2 2026-05-01 03:50 1.3M
20260501T00Z_MSC_GDPS_WindU_AGL-120m_LatLon0.15_PT014H.grib2 2026-05-01 03:50 1.0M
20260501T00Z_MSC_GDPS_WindU_AGL-40m_LatLon0.15_PT014H.grib2 2026-05-01 03:50 1.0M
20260501T00Z_MSC_GDPS_WindU_AGL-80m_LatLon0.15_PT014H.grib2 2026-05-01 03:50 1.0M
20260501T00Z_MSC_GDPS_WindU_IsbL-0700_LatLon0.15_PT014H.grib2 2026-05-01 03:50 1.2M
20260501T00Z_MSC_GDPS_WindV_AGL-10m_LatLon0.15_PT014H.grib2 2026-05-01 03:50 1.3M
20260501T00Z_MSC_GDPS_WindV_AGL-120m_LatLon0.15_PT014H.grib2 2026-05-01 03:50 1.0M
20260501T00Z_MSC_GDPS_WindV_AGL-40m_LatLon0.15_PT014H.grib2 2026-05-01 03:50 970K
20260501T00Z_MSC_GDPS_WindV_AGL-80m_LatLon0.15_PT014H.grib2 2026-05-01 03:50 1.0M
20260501T00Z_MSC_GDPS_WindV_IsbL-0700_LatLon0.15_PT014H.grib2 2026-05-01 03:50 1.2M